COSMOS 2098

导读

COSMOS 2098(宇宙2098)是独联体(CIS)继承自苏联航天体系后,于1990年8月28日09:00发射的人造卫星,归入苏联/俄罗斯传统的“宇宙”系列卫星序列。该系列卫星多兼顾科学试验与军事应用背景,部分任务目的未公开披露,推测该卫星入轨后承担空间环境探测或技术验证类任务,延续了宇宙系列卫星多用途航天开发的布局。

基本信息
目录编号:
20774
目录名称:
COSMOS 2098
国际标识:
1990-078A
轨道中心:
EARTH
卫星名称:
COSMOS 2098
卫星全名:
--
卫星状态:
在轨 (已飞行13156 天)
发射日期:
1990-08-28 UTC
国别 :
俄罗斯(独联体) (CIS)
星等 :
--
轨道信息
数据来源 国际轨道数据
星历时间: 2026-09-04T11:46:56+0800
4小时前
查看轨道信息
半长轴: 7304.598km
偏心率: 0.0741738
轨道倾角: 82.941°
近地点辐角 351.995°
升交点赤经 20.138°
平近点角 6.987°
近地点: 384.651km
远地点: 1468.271km
周期: 103.551分钟
每日圈数: 13.906196
详细信息
使用方式:
暂无
2D轨道图
3D轨道图
轨道高度分析图
轨道倾角分析图
轨道综合分析图
查看轨道综合分析图
交会数据列表
事件ID 空间交会对象 最接近时刻(TCA) 交会距离 交会风险概率(CRP) 交会风险指数(CRI) 操作
CDM_260905-142502-077405-533221
2026-09-05T
14:25:10+0000
0.276 km
中距离
3.912406E-4 高风险 0.87
CDM_260903-171502-077406-819323
2026-09-03T
17:15:21+0000
2.614 km
极远距离
1.533829E-6 低风险 0.39
CDM_260906-161702-077406-852121
2026-09-06T
16:17:30+0000
2.803 km
极远距离
7.269175E-7 极低风险 0.32